Regional Weather Roundup
Issued by NWS

Home | Current Version | Previous Version | Text Only | Print | Product List | Glossary Off
Versions: 1 2 3 4 5 6 7 8 9 10 11 12 13 14 15 16 17 18 19 20 21 22 23 24 25 26 27 28 29 30 31 32 33 34 35 36 37 38 39 40 41 42 43 44 45 46 47 48 49 50

000
ASUS43 KLOT 302006
RWRIL

ILLINOIS REGIONAL WEATHER ROUNDUP
NATIONAL WEATHER SERVICE CHICAGO/ROMEOVILLE IL
300 PM CDT THU OCT 30 2014

NOTE: "FAIR" INDICATES FEW OR NO CLOUDS BELOW 12,000 FEET WITH NO
SIGNIFICANT WEATHER AND/OR OBSTRUCTIONS TO VISIBILITY.

* THESE STATIONS ARE NOT UNDER NWS QUALITY CONTROL. THEY ALSO MAY NOT
  REPORT WEATHER SUCH AS PRECIPITATION OR FOG.

ILZ001-002-007-009-015-016-024-302100-
NORTHWEST ILLINOIS

CITY           SKY/WX    TMP DP  RH WIND       PRES   REMARKS
MOLINE         CLOUDY    50  38  63 SE7       30.04F
STERLING*      CLOUDY    52  36  54 SW6       30.06S
SAVANNA*       CLOUDY    51  35  54 SW5       30.05F
$$

ILZ003-004-008-010-011-017-018-302100-
NORTH CENTRAL ILLINOIS

CITY           SKY/WX    TMP DP  RH WIND       PRES   REMARKS
ROCKFORD       CLOUDY    51  36  56 W6        30.07F
FREEPORT*      CLOUDY    49  35  58 SW5       30.07S
ROCHELLE*      CLOUDY    50  36  59 W5        30.06F
DE KALB*       CLOUDY    49  35  59 SW6       30.06F
PERU*          CLOUDY    49  37  64 SW7       30.07F
$$

ILZ005-006-012>014-019>023-302100-
NORTHEAST ILLINOIS

CITY           SKY/WX    TMP DP  RH WIND       PRES   REMARKS
CHICAGO-OHARE  CLOUDY    50  34  54 W12       30.05F
CHICAGO-MIDWAY CLOUDY    52  36  54 SW9       30.06F
AURORA         CLOUDY    51  35  54 SW9       30.07S
LANSING*       CLOUDY    49  35  58 SW8       30.07F
JOLIET*        CLOUDY    49  35  58 SW7       30.07F
WAUKEGAN       CLOUDY    50  35  56 VRB7      30.04F
DUPAGE AIRPORT CLOUDY    52  35  52 SW8       30.05F
WHEELING       PTSUNNY   52  34  50 VRB6      30.08F
MORRIS*        CLOUDY    49  38  66 SW5       30.06F
ROMEOVILLE*    CLOUDY    49  35  56 W5        30.07S
NORTHERLY ISL    N/A     51  33  50 S8          N/A
$$

LMZ740>746-302100-
SOUTHERN LAKE MICHIGAN

STATION/POSITION SKY/WX   TEMP    WIND        PRES    VSBY  WAVE
                          AIR SEA DIR/SP/G                  HT/PER
                          (F)     (DEG/KT/KT) (MB)    (MI)  (FT/S)
SOUTHERN BUOY              48 53  230/ 10/ 12 1018.3F         2/ 4
WAUKEGAN HARBOR            50     220/  9/ 12   N/A
HARRISON CRIB              49     210/ 10/ 12   N/A
BURNHAM HARBOR             51     250/ 10/ 10   N/A
CALUMET HARBOR             51     220/  6/  9 1016.8F
MICHIGAN CITY              49     210/ 11/ 12   N/A
$$

ILZ025>027-034>036-040-047-049-050-058-095>099-302100-
WEST-CENTRAL ILLINOIS

CITY           SKY/WX    TMP DP  RH WIND       PRES   REMARKS
QUINCY         MOSUNNY   55  43  63 S7        29.99F
GALESBURG*     CLOUDY    46  40  79 E7        30.04F
MACOMB*        CLOUDY    53  41  63 E10       30.04F
JACKSONVILLE*  LGT RAIN  54  42  65 CALM      30.02S
PITTSFIELD*    CLOUDY    53  43  67 SW3       30.02S
$$

ILZ028>032-037-038-041>044-048-051>054-059>061-302100-
CENTRAL ILLINOIS

CITY           SKY/WX    TMP DP  RH WIND       PRES   REMARKS
PONTIAC        CLOUDY    50  38  62 SW5       30.08F
BLOOMINGTON    CLOUDY    51  39  63 S5        30.07F
DECATUR        LGT RAIN  52  41  66 SE5       30.06F
PEORIA         CLOUDY    50  39  66 E5        30.06F
LACON*         CLOUDY    48  36  63 CALM      30.06F
LINCOLN*       DRIZZLE   51  42  70 CALM      30.05S
SPRINGFIELD    CLOUDY    53  41  63 S8        30.05R
TAYLORVILLE    CLOUDY    50  43  76 SE8       30.03F
$$

ILZ033-039-045-046-055>057-062-063-302100-
EAST-CENTRAL ILLINOIS

CITY           SKY/WX    TMP DP  RH WIND       PRES   REMARKS
CHAMPAIGN      CLOUDY    53  36  52 SW6       30.08S
DANVILLE*      CLOUDY    52  34  50 SW7       30.05F
RANTOUL*       CLOUDY    54  36  52 SW5       30.07F
MATTOON        CLOUDY    52  36  54 S7        30.07S
PARIS*         CLOUDY    53  36  51 CALM      30.08F
$$

ILZ079-100>102-302100-
SOUTHWEST ILLINOIS

CITY           SKY/WX    TMP DP  RH WIND       PRES   REMARKS
BELLEVILLE     PTSUNNY   60  40  47 SE5       30.03F
CAHOKIA*       CLOUDY    61  40  45 E3        30.03F
SPARTA*        PTSUNNY   60  39  47 S9        30.05F
$$

ILZ064>066-069>071-074>076-080>082-084>086-088>090-092>094-302100-
SOUTH-CENTRAL ILLINOIS

CITY           SKY/WX    TMP DP  RH WIND       PRES   REMARKS
CARBONDALE     MOSUNNY   62  37  39 SW8       30.05F
CAIRO*         SUNNY     65  38  37 SW6       30.06F
EFFINGHAM*     CLOUDY    56  35  46 S3        30.06F
MARION         PTSUNNY   63  39  42 S7        30.06F
MT. VERNON     CLOUDY    59  39  47 S5        30.06F
CENTRALIA*     PTSUNNY   57  38  48 S7        30.05F
SALEM*         CLOUDY    58  40  51 S8        30.06F
METROPOLIS*    SUNNY     63  39  41 CALM      30.06F
$$

ILZ067-068-072-073-078-083-087-091-302100-
SOUTHEAST ILLINOIS

CITY           SKY/WX    TMP DP  RH WIND       PRES   REMARKS
LAWRENCEVILLE  SUNNY     56  31  38 S3        30.08F
FLORA*         SUNNY     57  37  46 S6        30.07F
FAIRFIELD*     CLOUDY    59  37  45 SE6       30.06F
HARRISBURG*    PTSUNNY   60  37  42 CALM      30.07F
ROBINSON*      SUNNY     58  37  45 S5        30.08F
CARMI*         CLOUDY    60  39  46 CALM      30.07F
$$

ABBREVIATIONS USED IN REMARKS
   TC - TEMPERATURE IN CELSIUS
  WCI - WIND CHILL INDEX
   HX - HEAT INDEX
  VSB - VISIBILITY
$$




USA.gov is the U.S. government's official web portal to all federal, state and local government web resources and services.